Onweer radar Meer informatie blitzortung!


Regen radar Meer informatie rain snow radar


Bezoek onze andere website:

Template documentation
and downloads

And another site



15 daagse weersverwachting Bregenz (AT)

  • Overzicht
  • Per uur
  • 15 dagen
  • Extra
  • Vergelijk
  • Kaarten
  • Dagkaart
  • Meer »
  • Info
  • Statistieken
  • Directe link
    Temp 6h Neerslag Wind  
 07:15     19:10    Daglengte: 11:55 Vandaag
08:00
16°
 
3
14:00
21°
 
2
20:00
18°
8.0 mm
2
warningclass
 07:16     19:08    Daglengte: 11:52 Morgen
02:00
16°
15.8 mm
2
08:00
15°
 
1
14:00
19°
 
2
20:00
18°
 
1
 07:18     19:06    Daglengte: 11:48 Dinsdag 28 Sep
02:00
16°
 
2
08:00
13°
 
2
14:00
18°
 
2
20:00
16°
12.8 mm
3
 07:19     19:04    Daglengte: 11:45 Woensdag 29 Sep
02:00
15°
37.6 mm
2
Locatie info
Region: Vorarlberg
Latitude: 47.5038°N
Longitude: 9.7437°E
405 masl
Postcode: 6900
Temp/Neerslag /Baro Onweer/Dauwpunt
    Temp Baro 1h Neerslag Dauwpunt Wind UV Bewolking  
 07:15     19:10    Daglengte: 11:55 Vandaag
07:00
16°
1018.8 hPa   12.5°
3
Windvlaag: 1.7 m/s
34%
08:00
16°
1018.3 hPa   12.6°
3
Windvlaag: 1.3 m/s
3%
09:00
17°
1018.3 hPa   12.8°
2
Windvlaag: 1.5 m/s
3%
10:00
20°
1018.4 hPa   13.9°
1
Windvlaag: 1.8 m/s
5%
11:00
20°
1018.3 hPa   12.6°
1
Windvlaag: 0.6 m/s
37%
12:00
21°
1018.0 hPa
13%
13.0°
2
Windvlaag: -1.4 m/s
28%
13:00
21°
1017.8 hPa
14%
15.1°
3
Windvlaag: -0.7 m/s
15%
14:00
21°
1017.9 hPa
16%
16.4°
2
Windvlaag: -0.5 m/s
57%
15:00
21°
1017.8 hPa
36%
17.0°
2
Windvlaag: -0.2 m/s
43%
16:00
20°
1017.1 hPa
81%
17.2°
1
Windvlaag: 0.5 m/s
51%
17:00
20°
1017.4 hPa
82%
17.0°
1
Windvlaag: 0.3 m/s
60%
18:00
20°
1017.8 hPa
82%
16.8°
1
Windvlaag: 0.3 m/s
84% warningclass
19:00
19°
1018.5 hPa 4.4 mm
82%
16.5°
2
Windvlaag: -0.6 m/s
85% warningclass
20:00
18°
1018.9 hPa 3.6 mm
82%
16.7°
2
Windvlaag: -2 m/s
85% warningclass
21:00
17°
1019.5 hPa 2.9 mm
82%
16.3°
2
Windvlaag: -0.8 m/s
84%
22:00
17°
1019.7 hPa 3.9 mm
82%
15.6°
1
Windvlaag: -0.4 m/s
83% warningclass
23:00
16°
1020.0 hPa 3.6 mm
82%
14.8°
2
Windvlaag: 2.5 m/s
81% warningclass
 07:16     19:08    Daglengte: 11:52 Morgen
00:00
16°
1020.1 hPa 3.5 mm
82%
14.4°
2
Windvlaag: 3.4 m/s
82% warningclass
01:00
16°
1020.0 hPa 1.9 mm
78%
14.1°
2
Windvlaag: 3.2 m/s
57%
02:00
16°
1019.9 hPa
20%
14.3°
2
Windvlaag: 2.9 m/s
29%
03:00
16°
1019.7 hPa
14%
14.7°
1
Windvlaag: 2.1 m/s
26%
04:00
16°
1019.4 hPa
14%
14.6°
1
Windvlaag: 1.1 m/s
11%
05:00
16°
1019.1 hPa
14%
14.4°
1
Windvlaag: 1.2 m/s
11%
06:00
15°
1019.2 hPa
14%
14.0°
1
Windvlaag: 2.5 m/s
12%
07:00
15°
1019.4 hPa
14%
13.6°
1
Windvlaag: 2.4 m/s
12%
08:00
15°
1019.8 hPa
14%
13.4°
1
Windvlaag: 1.7 m/s
27%
09:00
15°
1019.6 hPa
14%
14.1°
1
Windvlaag: 1.8 m/s
16%
10:00
16°
1019.4 hPa
14%
14.4°
1
Windvlaag: 0.8 m/s
19%
11:00
17°
1019.1 hPa
14%
14.6°
1
Windvlaag: -0.5 m/s
18%
12:00
18°
1018.7 hPa
14%
14.9°
1
Windvlaag: -1.2 m/s
16%
13:00
18°
1018.5 hPa
14%
13.9°
2
Windvlaag: -1.5 m/s
16%
14:00
19°
1018.3 hPa
14%
13.4°
2
Windvlaag: -1.4 m/s
41%
15:00
19°
1018.2 hPa
14%
12.8°
2
Windvlaag: -1.4 m/s
60%
16:00
19°
1018.0 hPa
14%
12.8°
1
Windvlaag: -1 m/s
32%
17:00
19°
1018.0 hPa
14%
13.1°
1
Windvlaag: 0.6 m/s
55%
18:00
19°
1018.5 hPa
14%
13.0°
1
Windvlaag: 0.9 m/s
75%
19:00
19°
1019.0 hPa
14%
14.6°
1
Windvlaag: 1 m/s
74%
20:00
18°
1019.6 hPa
16%
14.9°
1
Windvlaag: 0.7 m/s
80%
21:00
17°
1020.2 hPa
14%
15.1°
1
Windvlaag: 0.9 m/s
42%
22:00
17°
1020.7 hPa
14%
14.8°
2
Windvlaag: 1.5 m/s
43%
23:00
16°
1021.4 hPa
22%
12.1°
2
Windvlaag: 2.3 m/s
86%
 07:18     19:06    Daglengte: 11:48 Dinsdag 28 Sep
00:00
17°
1021.7 hPa
72%
12.5°
2
Windvlaag: 2.7 m/s
75%
01:00
17°
1021.7 hPa
78%
12.5°
2
Windvlaag: 2.1 m/s
79%
02:00
16°
1021.9 hPa
67%
12.6°
2
Windvlaag: 2.1 m/s
42%
03:00
16°
1022.0 hPa
69%
12.5°
2
Windvlaag: 1.8 m/s
40%
04:00
15°
1021.9 hPa
26%
12.9°
2
Windvlaag: 2 m/s
39%
05:00
15°
1021.8 hPa
24%
13.7°
2
Windvlaag: 1.7 m/s
57%
06:00
14°
1021.9 hPa
21%
13.7°
2
Windvlaag: 1.4 m/s
52%
07:00
14°
1022.1 hPa
21%
13.2°
2
Windvlaag: 1.5 m/s
71%
08:00
13°
1022.5 hPa
23%
12.3°
2
Windvlaag: 1.3 m/s
88%
09:00
15°
1022.5 hPa
22%
13.0°
1
Windvlaag: 1.2 m/s
67%
10:00
16°
1022.3 hPa
22%
13.9°
1
Windvlaag: -0.3 m/s
80%
11:00
16°
1022.0 hPa
21%
13.4°
2
Windvlaag: -1.1 m/s
78%
12:00
16°
1021.3 hPa
21%
12.8°
2
Windvlaag: -1.3 m/s
69%
13:00
17°
1020.5 hPa
21%
12.0°
2
Windvlaag: -1.3 m/s
51%
14:00
18°
1019.9 hPa
21%
11.8°
2
Windvlaag: -1.6 m/s
41%
15:00
18°
1019.3 hPa
21%
12.1°
2
Windvlaag: -1.2 m/s
61%
16:00
19°
1018.8 hPa
21%
13.0°
2
Windvlaag: -1.2 m/s
74%
17:00
19°
1018.3 hPa
21%
13.9°
2
Windvlaag: 1.2 m/s
86%
18:00
19°
1018.3 hPa 3.9 mm
21%
14.7°
2
Windvlaag: 3.2 m/s
96%
19:00
18°
1018.6 hPa 4.1 mm
22%
15.7°
2
Windvlaag: 3.4 m/s
89%
20:00
16°
1018.7 hPa 4.8 mm
22%
14.5°
3
Windvlaag: 3.1 m/s
93%
21:00
16°
1018.8 hPa 5.5 mm
22%
13.7°
2
Windvlaag: 3.3 m/s
92%
22:00
15°
1018.9 hPa 7.0 mm
21%
13.1°
2
Windvlaag: 2.7 m/s
91%
23:00
15°
1018.8 hPa 7.2 mm
21%
13.2°
2
Windvlaag: 2 m/s
94%
 07:19     19:04    Daglengte: 11:45 Woensdag 29 Sep
00:00
15°
1018.8 hPa 5.5 mm
21%
13.2°
1
Windvlaag: 1.6 m/s
96%
01:00
15°
1019.3 hPa 6.3 mm
21%
14.1°
2
Windvlaag: 1.3 m/s
100%
02:00
15°
1019.5 hPa 6.1 mm
97%
13.9°
2
Windvlaag: 0.1 m/s
100%
03:00
14°
1019.6 hPa 8.0 mm
100%
14.0°
2
Windvlaag: 3 m/s
100% warningclass
04:00
14°
1019.4 hPa 8.9 mm
100%
13.8°
2
Windvlaag: 3 m/s
100%
05:00
14°
1019.4 hPa 11.3 mm
100%
13.1°
2
Windvlaag: 3.5 m/s
100% warningclass
06:00
13°
1020.7 hPa 12.1 mm
100%
11.6°
4
Windvlaag: 3.2 m/s
100%
Temp/Neerslag /Baro Onweer/Dauwpunt
    Temp Baro Neerslag Dauwpunt Wind Bewolking  
 07:15     19:10    Daglengte: 11:55 Vandaag
08:00
16°
1018.3 hPa   12.6°
3
3%
11:00
20°
1018.3 hPa   12.6°
1
37%
14:00
21°
1017.9 hPa   16.4°
2
57%
17:00
20°
1017.4 hPa   17.0°
1
60%
20:00
18°
1018.9 hPa 8.0 mm 16.7°
2
85% warningclass
23:00
16°
1020.0 hPa 10.4 mm 14.8°
2
81% warningclass
 07:16     19:08    Daglengte: 11:52 Morgen
02:00
16°
1019.9 hPa 5.4 mm 14.3°
2
29%
05:00
16°
1019.1 hPa   14.4°
1
11%
08:00
15°
1019.8 hPa   13.4°
1
27%
11:00
17°
1019.1 hPa   14.6°
1
18%
14:00
19°
1018.3 hPa   13.4°
2
41%
17:00
19°
1018.0 hPa   13.1°
1
55%
20:00
18°
1019.6 hPa   14.9°
1
80%
23:00
16°
1021.4 hPa   12.1°
2
86%
 07:18     19:06    Daglengte: 11:48 Dinsdag 28 Sep
02:00
16°
1021.9 hPa   12.6°
2
42%
05:00
15°
1021.8 hPa   13.7°
2
57%
08:00
13°
1022.5 hPa   12.3°
2
88%
11:00
16°
1022.0 hPa   13.4°
2
78%
14:00
18°
1019.9 hPa   11.8°
2
41%
17:00
19°
1018.3 hPa   13.9°
2
86%
20:00
16°
1018.7 hPa 12.8 mm 14.5°
3
93%
23:00
15°
1018.8 hPa 19.7 mm 13.2°
2
94%
 07:19     19:04    Daglengte: 11:45 Woensdag 29 Sep
02:00
15°
1019.5 hPa 17.9 mm 13.9°
2
100%
05:00
14°
1019.4 hPa 28.2 mm 13.1°
2
100% warningclass
08:00
13°
1022.6 hPa 34.8 mm 10.4°
2
100%
11:00
14°
1025.6 hPa 26.5 mm 11.6°
1
1%
14:00
14°
1026.2 hPa 26.5 mm 9.3°
2
1%
17:00
17°
1026.0 hPa 26.6 mm 7.1°
2
1%
20:00
13°
1027.7 hPa 26.7 mm 6.5°
1
1%
23:00
10°
Voelt als: 9.4°
1029.3 hPa 26.7 mm 5.9°
2
1%
 07:21     19:02    Daglengte: 11:41 Donderdag 30 Sep
02:00
Voelt als: 8.5°
1029.0 hPa 26.7 mm 5.2°
2
1%
05:00
Voelt als: 8.8°
1029.0 hPa 26.7 mm 4.7°
2
1%
08:00
10°
Voelt als: 9.3°
1028.9 hPa 26.7 mm 4.9°
1
1%
11:00
14°
1027.5 hPa 26.7 mm 6.5°
1
0%
14:00
17°
1025.4 hPa 26.7 mm 7.1°
1
0%
17:00
17°
1025.2 hPa 26.7 mm 9.3°
2
1%
20:00
12°
1027.0 hPa 26.9 mm 10.5°
1
1%
23:00
10°
1028.3 hPa 27.0 mm 9.4°
1
1%
 07:22     19:00    Daglengte: 11:38 Vrijdag 01 Okt
02:00
10°
Voelt als: 9.4°
1028.1 hPa 27.0 mm 8.7°
1
1%
05:00
10°
1027.7 hPa 27.0 mm 8.9°
1
1%
08:00
10°
1027.8 hPa 27.0 mm 8.6°
0
1%
11:00
14°
1027.2 hPa 27.0 mm 9.8°
1
1%
14:00
17°
1024.6 hPa 27.1 mm 9.4°
1
1%
17:00
16°
1023.0 hPa 27.1 mm 10.2°
2
0%
23:00
Voelt als: 8.4°
1024.1 hPa 27.1 mm 7.9°
2
0%
 07:23     18:58    Daglengte: 11:35 Zaterdag 02 Okt
02:00
Voelt als: 7.9°
1022.6 hPa 27.1 mm 7.0°
1
0%
05:00
Voelt als: 7.3°
1021.0 hPa 27.1 mm 6.4°
1
0%
08:00
Voelt als: 7.6°
1020.2 hPa 27.1 mm 5.7°
1
0%
11:00
15°
1018.1 hPa 27.1 mm 7.2°
1
0%
14:00
18°
1015.5 hPa 27.1 mm 9.0°
2
0%
17:00
18°
1013.8 hPa 27.1 mm 10.2°
1
0%
20:00
12°
1014.3 hPa 27.1 mm 9.5°
2
0%
23:00
11°
1014.6 hPa 27.1 mm 8.2°
2
1%
 07:25     18:56    Daglengte: 11:31 Zondag 03 Okt
02:00
10°
Voelt als: 8.8°
1014.3 hPa 27.1 mm 6.3°
3
0%
05:00
Voelt als: 8.1°
1013.7 hPa 27.1 mm 5.4°
2
0%
08:00
10°
1013.1 hPa 54.1 mm 5.5°
2
1%
14:00
19°
1010.7 hPa 54.1 mm 7.9°
2
1%
20:00
13°
1014.3 hPa 54.1 mm 9.9°
2
1%
 07:26     18:54    Daglengte: 11:28 Maandag 04 Okt
02:00
12°
1018.2 hPa 54.3 mm 9.4°
2
1%
08:00
11°
1019.9 hPa 54.4 mm 8.7°
1
1%
14:00
18°
1017.8 hPa 54.4 mm 9.9°
2
1%
20:00
12°
1019.0 hPa 54.4 mm 10.3°
2
0%
 07:27     18:52    Daglengte: 11:25 Dinsdag 05 Okt
02:00
11°
1018.8 hPa 54.4 mm 6.2°
2
0%
08:00
12°
1017.4 hPa 54.4 mm 6.5°
2
1%
14:00
23°
1013.8 hPa 54.4 mm 12.3°
2
1%
20:00
16°
1014.7 hPa 54.4 mm 11.7°
3
1%
 07:29     18:50    Daglengte: 11:21 Woensdag 06 Okt
02:00
11°
1017.1 hPa 0.9 mm 8.1°
2
67%
08:00
10°
1017.3 hPa 1.1 mm 7.9°
2
66%
14:00
15°
1017.2 hPa 2.0 mm 10.9°
2
70%
20:00
11°
1019.2 hPa 2.7 mm 9.6°
1
69%
 07:30     18:48    Daglengte: 11:18 Donderdag 07 Okt
02:00
10°
Voelt als: 9.6°
1020.4 hPa 1.4 mm 8.3°
1
69%
08:00
1020.6 hPa 0.9 mm 8.0°
1
69%
14:00
15°
1019.5 hPa 1.4 mm 10.7°
1
73%
20:00
11°
1020.9 hPa 1.2 mm 10.0°
1
70%
 07:32     18:46    Daglengte: 11:14 Vrijdag 08 Okt
02:00
10°
Voelt als: 9.8°
1021.9 hPa 0.8 mm 8.4°
1
62%
08:00
10°
Voelt als: 9.4°
1022.3 hPa 0.5 mm 7.7°
1
68%
14:00
17°
1021.1 hPa 0.6 mm 10.9°
1
60%
20:00
11°
1022.5 hPa 0.5 mm 10.0°
1
54%
 07:33     18:44    Daglengte: 11:11 Zaterdag 09 Okt
02:00
10°
1023.3 hPa 0.6 mm 8.3°
1
55%
08:00
Voelt als: 9.2°
1023.0 hPa   7.5°
1
62%
14:00
17°
1021.0 hPa 1.1 mm 10.4°
1
52%
20:00
12°
1021.8 hPa 1.3 mm 10.1°
1
55%
 07:34     18:42    Daglengte: 11:08 Zondag 10 Okt
02:00
10°
1022.2 hPa 0.7 mm 8.1°
1
59%
08:00
10°
1021.8 hPa 0.4 mm 7.5°
1
62%
14:00
17°
1020.3 hPa 0.6 mm 11.2°
1
66%
20:00
12°
1021.3 hPa 0.6 mm 10.4°
1
61%
 07:36     18:40    Daglengte: 11:04 Maandag 11 Okt
02:00
10°
1022.0 hPa 0.6 mm 8.6°
1
61%
08:00
1022.2 hPa 1.3 mm 7.8°
1
62%
  CAPE Lifted Index Hail Supercell Tornado SRH 3km CL BTM PRES CL TOP PRES Swiss DWD icon SMHI TS
 07:15     19:10    Daglengte: 11:55 Vandaag
07:00 0 J/kg -0.8 K 0 % 0 % 0 % 0 m²/s² 0 0 0.58 3
08:00 0 J/kg -0.2 K 0 % 0 % 0 % 0 m²/s² 0 0 1.6 2
09:00 0 J/kg 0.5 K 0 % 0 % 0 % 0 m²/s² 0 0 2.9 2
10:00 13 J/kg 0.2 K 0 % 0 % 0 % 0 m²/s² 0 0 2.24 1
11:00 16 J/kg 0.3 K 0 % 0 % 0 % 0 m²/s² 0 0 1.89 3
12:00 65 J/kg -1.2 K 0 % 0 % 0 % 0 m²/s² 0 0 -0.45 3
13:00 229 J/kg -1.0 K 0 % 0 % 0 % 0 m²/s² 0 0 -0.97 2
14:00 92 J/kg -0.3 K 0 % 0 % 0 % 0 m²/s² 0 0 0.18 3
15:00 165 J/kg -1.0 K 0 % 0 % 0 % 0 m²/s² 0 0 -0.43 80
16:00 213 J/kg -1.5 K 0 % 0 % 0 % 0 m²/s² 0 0 -1.14 80
17:00 62 J/kg -0.7 K 0 % 0 % 0 % 0 m²/s² 0 0 0.2 80
18:00 61 J/kg 0.4 K 0 % 0 % 0 % 0 m²/s² 0 0 0.43 95
19:00 2 J/kg 0.7 K 0 % 0 % 0 % 0 m²/s² 0 0 1 95
20:00 0 J/kg 1.4 K 0 % 0 % 0 % 0 m²/s² 0 0 1.52 95
21:00 0 J/kg 2.0 K 0 % 0 % 0 % 0 m²/s² 0 0 2.66 80
22:00 0 J/kg 2.4 K 0 % 0 % 0 % 0 m²/s² 0 0 3.54 95
23:00 0 J/kg 2.4 K 0 % 0 % 0 % 0 m²/s² 0 0 4.47 95
 07:16     19:08    Daglengte: 11:52 Morgen
00:00 2 J/kg 2.3 K 0 % 0 % 0 % 0 m²/s² 0 0 4.52 95
01:00 0 J/kg 1.9 K 0 % 0 % 0 % 0 m²/s² 0 0 3.64 80
02:00 0 J/kg 1.7 K 0 % 0 % 0 % 0 m²/s² 0 0 3.59 3
03:00 7 J/kg 1.2 K 0 % 0 % 0 % 0 m²/s² 0 0 2.64 3
04:00 25 J/kg 1.5 K 0 % 0 % 0 % 0 m²/s² 0 0 3.57 2
05:00 44 J/kg 1.7 K 0 % 0 % 0 % 0 m²/s² 0 0 3.83 1
06:00 30 J/kg 1.6 K 0 % 0 % 0 % 0 m²/s² 0 0 3.94 1
07:00 20 J/kg 1.8 K 0 % 0 % 0 % 0 m²/s² 0 0 4.14 2
08:00 16 J/kg 2.2 K 0 % 0 % 0 % 0 m²/s² 0 0 4.63 1
09:00 25 J/kg 3.1 K 0 % 0 % 0 % 0 m²/s² 0 0 5.59 1
10:00 36 J/kg 3.1 K 0 % 0 % 0 % 0 m²/s² 0 0 5.83 2
11:00 37 J/kg 3.0 K 0 % 0 % 0 % 0 m²/s² 0 0 5.82 1
12:00 28 J/kg 3.0 K 0 % 0 % 0 % 0 m²/s² 0 0 5.82 1
13:00 29 J/kg 2.7 K 0 % 0 % 0 % 0 m²/s² 0 0 5.34 1
14:00 15 J/kg 2.3 K 0 % 0 % 0 % 0 m²/s² 0 0 4.94 3
15:00 11 J/kg 2.3 K 0 % 0 % 0 % 0 m²/s² 0 0 5.03 3
16:00 31 J/kg 1.9 K 0 % 0 % 0 % 0 m²/s² 0 0 4.69 2
17:00 65 J/kg 2.2 K 0 % 0 % 0 % 0 m²/s² 0 0 4.33 3
18:00 88 J/kg 2.0 K 0 % 0 % 0 % 0 m²/s² 0 0 4.07 3
19:00 74 J/kg 1.9 K 0 % 0 % 0 % 0 m²/s² 0 0 2.47 3
20:00 62 J/kg 2.2 K 0 % 0 % 0 % 0 m²/s² 0 0 2.77 3
21:00 41 J/kg 2.1 K 0 % 0 % 0 % 0 m²/s² 0 0 2.94 3
22:00 4 J/kg 2.6 K 0 % 0 % 0 % 0 m²/s² 0 0 3.44 3
23:00 7 J/kg 2.4 K 0 % 0 % 0 % 0 m²/s² 0 0 3.66 3
 07:18     19:06    Daglengte: 11:48 Dinsdag 28 Sep
00:00 11 J/kg 2.1 K 0 % 0 % 0 % 0 m²/s² 0 0 3.75 3
01:00 13 J/kg 1.8 K 0 % 0 % 0 % 0 m²/s² 0 0 3.51 3
02:00 0 J/kg 2.1 K 0 % 0 % 0 % 0 m²/s² 0 0 4.53 3
03:00 0 J/kg 2.1 K 0 % 0 % 0 % 0 m²/s² 0 0 5.22 2
04:00 1 J/kg 1.7 K 0 % 0 % 0 % 0 m²/s² 0 0 4.91 2
05:00 2 J/kg 2.2 K 0 % 0 % 0 % 0 m²/s² 0 0 3.97 3
06:00 4 J/kg 2.8 K 0 % 0 % 0 % 0 m²/s² 0 0 3.79 2
07:00 11 J/kg 4.2 K 0 % 0 % 0 % 0 m²/s² 0 0 5.67 2
08:00 8 J/kg 4.5 K 0 % 0 % 0 % 0 m²/s² 0 0 8.07 3
09:00 6 J/kg 4.8 K 0 % 0 % 0 % 0 m²/s² 0 0 9.45 2
10:00 4 J/kg 5.1 K 0 % 0 % 0 % 0 m²/s² 0 0 10.68 2
11:00 3 J/kg 5.3 K 0 % 0 % 0 % 0 m²/s² 0 0 10.61 2
12:00 1 J/kg 4.7 K 0 % 0 % 0 % 0 m²/s² 0 0 9.38 3
13:00 0 J/kg 4.5 K 0 % 0 % 0 % 0 m²/s² 0 0 9.15 3
14:00 0 J/kg 4.3 K 0 % 0 % 0 % 0 m²/s² 0 0 8.95 3
15:00 1 J/kg 3.2 K 0 % 0 % 0 % 0 m²/s² 0 0 7.52 2
16:00 3 J/kg 1.8 K 0 % 0 % 0 % 0 m²/s² 0 0 5.61 3
17:00 1 J/kg 1.1 K 0 % 0 % 0 % 0 m²/s² 0 0 4.7 3
18:00 0 J/kg -0.1 K 0 % 0 % 0 % 0 m²/s² 0 0 2.57 3
19:00 0 J/kg -0.8 K 0 % 0 % 0 % 0 m²/s² 0 0 0.73 3
20:00 0 J/kg -1.0 K 0 % 0 % 0 % 0 m²/s² 0 0 0.05 3
21:00 0 J/kg -1.1 K 0 % 0 % 0 % 0 m²/s² 0 0 -0.35 3
22:00 0 J/kg -1.5 K 0 % 0 % 0 % 0 m²/s² 0 0 -0.6 3
23:00 0 J/kg -1.5 K 0 % 0 % 0 % 0 m²/s² 0 0 -0.81 3
 07:19     19:04    Daglengte: 11:45 Woensdag 29 Sep
00:00 0 J/kg -0.7 K 0 % 0 % 0 % 0 m²/s² 0 0 -0.4 3
01:00 53 J/kg 3.4 K 0 % 0 % 0 % 0 m²/s² 0 0 3.61 3
02:00 69 J/kg 4.4 K 0 % 0 % 0 % 0 m²/s² 0 0 4.49 3
03:00 73 J/kg 4.3 K 0 % 0 % 0 % 0 m²/s² 0 0 4.54 95
04:00 43 J/kg 4.5 K 0 % 0 % 0 % 0 m²/s² 0 0 4.74 80
05:00 10 J/kg 4.3 K 0 % 0 % 0 % 0 m²/s² 0 0 5.14 95
06:00 0 J/kg 3.5 K 0 % 0 % 0 % 0 m²/s² 0 0 5.72 63
Temp Baro Wind Neerslag
  EWN Forecast EWN WRFDA DWD ICON FMI HIRLAM MET Norway GFS
 07:15     19:10    Daglengte: 11:55 Vandaag
08:00 16.1° 1018.3 hPa 2.6 m/s 0.0 mm 17.5° 1016.8 hPa 3.4 m/s 0.0 mm 15.6° 1018.1 hPa 2.0 m/s -2.0 mm 15.9° 1019.8 hPa 2.4 m/s 0.0 mm 15.6° 1018.2 hPa 1.6 m/s
11:00 20.3° 1018.3 hPa 1.2 m/s 0.0 mm 22.2° 1016.6 hPa 2.1 m/s 0.0 mm 19.9° 1018.5 hPa 1.4 m/s 0.0 mm 22.1° 1018.1 hPa 0.2 m/s 0.0 mm 21.3° 1017.5 hPa 1.4 m/s
14:00 21.0° 1017.9 hPa 2.1 m/s 0.0 mm 17.8° 1019.0 hPa 4.3 m/s 6.3 mm 21.5° 1017.2 hPa 1.9 m/s 0.0 mm 22.6° 1017.6 hPa 2.1 m/s 0.0 mm 20.8° 1017.5 hPa 1.8 m/s
17:00 20.0° 1017.4 hPa 1.2 m/s 0.0 mm 18.8° 1016.8 hPa 4.0 m/s 17.4 mm 18.1° 1017.4 hPa 1.6 m/s 5.3 mm 20.5° 1017.1 hPa 0.7 m/s 0.0 mm 18.4° 1017.7 hPa 1.1 m/s
20:00 18.0° 1018.9 hPa 2.0 m/s 8.0 mm 16.6° 1017.7 hPa 3.2 m/s 18.0 mm 17.0° 1019.0 hPa 1.8 m/s 16.5 mm 18.5° 1018.6 hPa 1.3 m/s 0.0 mm 16.1° 1019.0 hPa 1.1 m/s
23:00 16.3° 1020.0 hPa 1.8 m/s 10.4 mm 14.1° 1017.7 hPa 2.9 m/s 18.4 mm 16.0° 1020.1 hPa 1.1 m/s 4.4 mm 17.1° 1019.7 hPa 1.8 m/s 0.0 mm 15.5° 1019.6 hPa 1.0 m/s
 07:16     19:08    Daglengte: 11:52 Morgen
02:00 16.1° 1019.9 hPa 1.8 m/s 5.4 mm 13.4° 1018.4 hPa 2.9 m/s 18.4 mm 15.6° 1020.1 hPa 0.8 m/s 1.6 mm 16.8° 1020.0 hPa 1.8 m/s 0.0 mm 14.2° 1019.8 hPa 1.0 m/s
05:00 15.7° 1019.1 hPa 0.8 m/s 0.0 mm 15.0° 1018.2 hPa 2.3 m/s 19.7 mm 14.8° 1019.1 hPa 0.5 m/s 0.0 mm 15.8° 1019.7 hPa 1.1 m/s 0.0 mm 13.5° 1019.6 hPa 1.4 m/s
08:00 14.6° 1019.8 hPa 1.2 m/s 0.0 mm 14.9° 1018.4 hPa 1.9 m/s 22.5 mm 12.6° 1019.9 hPa 1.5 m/s 0.0 mm 15.0° 1020.3 hPa 1.1 m/s 0.0 mm 13.3° 1019.0 hPa 1.2 m/s
11:00 17.1° 1019.1 hPa 0.8 m/s 0.0 mm 17.1° 1018.2 hPa 2.0 m/s 24.7 mm 17.2° 1019.2 hPa 0.6 m/s 0.0 mm 18.3° 1018.8 hPa 0.2 m/s 0.0 mm 18.4° 1018.8 hPa 1.1 m/s
14:00 18.8° 1018.3 hPa 2.2 m/s 0.0 mm 19.6° 1017.5 hPa 1.7 m/s 24.8 mm 18.9° 1018.6 hPa 1.3 m/s 0.0 mm 21.0° 1017.1 hPa 2.3 m/s 0.0 mm 20.9° 1018.1 hPa 1.6 m/s
17:00 19.3° 1018.0 hPa 1.0 m/s 0.0 mm 19.9° 1017.6 hPa 1.3 m/s 24.8 mm 18.9° 1018.3 hPa 1.0 m/s 0.0 mm 21.4° 1016.0 hPa 2.1 m/s 0.0 mm 19.8° 1019.1 hPa 0.7 m/s
20:00 17.8° 1019.6 hPa 1.1 m/s 0.0 mm 17.1° 1018.8 hPa 1.7 m/s 24.8 mm 16.8° 1020.2 hPa 1.1 m/s 0.0 mm 17.9° 1018.4 hPa 1.1 m/s 0.0 mm 16.6° 1021.1 hPa 2.1 m/s
23:00 16.1° 1021.4 hPa 2.1 m/s 0.0 mm 15.7° 1019.5 hPa 3.4 m/s 24.8 mm 15.7° 1021.6 hPa 1.1 m/s 0.0 mm 14.9° 1022.2 hPa 1.2 m/s
 07:18     19:06    Daglengte: 11:48 Dinsdag 28 Sep
02:00 16.2° 1021.9 hPa 2.2 m/s 0.0 mm 16.1° 1020.2 hPa 2.5 m/s 24.8 mm 15.5° 1022.2 hPa 1.1 m/s 0.1 mm 13.1° 1023.2 hPa 1.3 m/s
05:00 14.9° 1021.8 hPa 2.3 m/s 0.0 mm 14.7° 1021.2 hPa 2.9 m/s 25.2 mm 14.1° 1022.4 hPa 1.5 m/s 0.0 mm 12.3° 1023.4 hPa 1.9 m/s
08:00 13.4° 1022.5 hPa 2.0 m/s 0.0 mm 12.9° 1022.5 hPa 3.4 m/s 30.4 mm 12.9° 1022.6 hPa 1.8 m/s 0.0 mm 12.4° 1023.3 hPa 1.3 m/s
11:00 16.3° 1022.0 hPa 1.6 m/s 0.0 mm 14.4° 1021.9 hPa 1.4 m/s 32.8 mm 17.5° 1021.8 hPa 1.3 m/s 0.0 mm 16.3° 1022.8 hPa 1.0 m/s
14:00 17.9° 1019.9 hPa 2.3 m/s 0.0 mm 17.9° 1019.5 hPa 2.1 m/s 32.8 mm 18.8° 1019.9 hPa 2.3 m/s 0.0 mm 19.3° 1020.4 hPa 1.6 m/s
17:00 19.0° 1018.3 hPa 2.2 m/s 0.0 mm 18.5° 1017.9 hPa 4.1 m/s 32.8 mm 19.4° 1018.2 hPa 2.2 m/s 0.0 mm 18.0° 1019.4 hPa 1.8 m/s
20:00 16.5° 1018.7 hPa 2.8 m/s 12.8 mm 14.2° 1018.6 hPa 4.2 m/s 32.8 mm 16.5° 1018.1 hPa 1.6 m/s 0.0 mm 15.9° 1020.3 hPa 1.6 m/s
23:00 14.8° 1018.8 hPa 1.9 m/s 19.7 mm 14.0° 1018.5 hPa 2.5 m/s 32.9 mm 14.6° 1018.5 hPa 0.9 m/s 0.0 mm 15.1° 1020.4 hPa 0.9 m/s
 07:19     19:04    Daglengte: 11:45 Woensdag 29 Sep
02:00 14.7° 1019.5 hPa 2.0 m/s 17.9 mm 13.5° 1021.2 hPa 3.6 m/s 44.0 mm 14.5° 1018.8 hPa 1.5 m/s 0.1 mm 14.7° 1020.8 hPa 3.4 m/s
05:00 14.1° 1019.4 hPa 2.4 m/s 28.2 mm 12.7° 1020.8 hPa 1.7 m/s 72.3 mm 14.5° 1019.0 hPa 2.6 m/s 6.1 mm 12.1° 1023.3 hPa 2.1 m/s
08:00 12.5° 1022.6 hPa 2.3 m/s 34.8 mm 13.7° 1021.3 hPa 3.1 m/s 76.8 mm 12.2° 1023.0 hPa 2.2 m/s 13.8 mm 12.0° 1024.6 hPa 2.1 m/s
11:00 13.7° 1025.6 hPa 1.4 m/s 26.5 mm 13.7° 1025.6 hPa 1.4 m/s 26.5 mm
14:00 14.5° 1026.2 hPa 1.8 m/s 26.5 mm 14.5° 1026.2 hPa 1.8 m/s 26.5 mm
17:00 16.7° 1026.0 hPa 2.4 m/s 26.6 mm 16.7° 1026.0 hPa 2.4 m/s 26.6 mm
20:00 13.1° 1027.7 hPa 1.0 m/s 26.7 mm 13.1° 1027.7 hPa 1.0 m/s 26.7 mm
23:00 9.9° 1029.3 hPa 1.6 m/s 26.7 mm 9.9° 1029.3 hPa 1.6 m/s 26.7 mm
 07:21     19:02    Daglengte: 11:41 Donderdag 30 Sep
02:00 9.0° 1029.0 hPa 1.6 m/s 26.7 mm 9.0° 1029.0 hPa 1.6 m/s 26.7 mm
05:00 9.3° 1029.0 hPa 1.6 m/s 26.7 mm 9.3° 1029.0 hPa 1.6 m/s 26.7 mm
08:00 9.7° 1028.9 hPa 1.5 m/s 26.7 mm 9.7° 1028.9 hPa 1.5 m/s 26.7 mm
11:00 14.3° 1027.5 hPa 0.6 m/s 26.7 mm 14.3° 1027.5 hPa 0.6 m/s 26.7 mm
14:00 17.3° 1025.4 hPa 1.4 m/s 26.7 mm 17.3° 1025.4 hPa 1.4 m/s 26.7 mm
17:00 16.5° 1025.2 hPa 2.0 m/s 26.7 mm 16.5° 1025.2 hPa 2.0 m/s 26.7 mm
20:00 11.8° 1027.0 hPa 1.3 m/s 26.9 mm 11.8° 1027.0 hPa 1.3 m/s 26.9 mm
23:00 10.2° 1028.3 hPa 1.5 m/s 27.0 mm 10.2° 1028.3 hPa 1.5 m/s 27.0 mm
 07:22     19:00    Daglengte: 11:38 Vrijdag 01 Okt
02:00 9.5° 1028.1 hPa 1.2 m/s 27.0 mm 9.5° 1028.1 hPa 1.2 m/s 27.0 mm
05:00 10.0° 1027.7 hPa 1.0 m/s 27.0 mm 10.0° 1027.7 hPa 1.0 m/s 27.0 mm
08:00 10.2° 1027.8 hPa 0.4 m/s 27.0 mm 10.2° 1027.8 hPa 0.4 m/s 27.0 mm
11:00 13.5° 1027.2 hPa 0.9 m/s 27.0 mm 13.5° 1027.2 hPa 0.9 m/s 27.0 mm
14:00 16.6° 1024.6 hPa 1.5 m/s 27.1 mm 16.6° 1024.6 hPa 1.5 m/s 27.1 mm
17:00 16.5° 1023.0 hPa 1.6 m/s 27.1 mm 16.5° 1023.0 hPa 1.6 m/s 27.1 mm
23:00 9.2° 1024.1 hPa 1.9 m/s 27.1 mm 9.2° 1024.1 hPa 1.8 m/s 27.1 mm
 07:23     18:58    Daglengte: 11:35 Zaterdag 02 Okt
02:00 8.3° 1022.6 hPa 1.3 m/s 27.1 mm 8.3° 1022.6 hPa 1.3 m/s 27.1 mm
05:00 7.7° 1021.0 hPa 1.2 m/s 27.1 mm 7.7° 1021.0 hPa 1.2 m/s 27.1 mm
08:00 7.8° 1020.2 hPa 1.1 m/s 27.1 mm 7.8° 1020.2 hPa 1.1 m/s 27.1 mm
11:00 14.8° 1018.1 hPa 1.2 m/s 27.1 mm 14.8° 1018.1 hPa 1.2 m/s 27.1 mm
14:00 18.1° 1015.5 hPa 1.7 m/s 27.1 mm 18.1° 1015.5 hPa 1.7 m/s 27.1 mm
17:00 17.5° 1013.8 hPa 1.1 m/s 27.1 mm 17.5° 1013.8 hPa 1.1 m/s 27.1 mm
20:00 12.1° 1014.3 hPa 1.7 m/s 27.1 mm 12.1° 1014.3 hPa 1.7 m/s 27.1 mm
23:00 11.0° 1014.6 hPa 2.4 m/s 27.1 mm 11.0° 1014.6 hPa 2.4 m/s 27.1 mm
 07:25     18:56    Daglengte: 11:31 Zondag 03 Okt
02:00 10.0° 1014.3 hPa 2.5 m/s 27.1 mm 10.0° 1014.3 hPa 2.5 m/s 27.1 mm
05:00 9.4° 1013.7 hPa 2.4 m/s 27.1 mm 9.4° 1013.7 hPa 2.4 m/s 27.1 mm
08:00 10.5° 1013.1 hPa 2.5 m/s 27.1 mm 10.5° 1013.1 hPa 2.5 m/s 27.1 mm
14:00 19.2° 1010.7 hPa 2.5 m/s 27.1 mm 19.2° 1010.7 hPa 2.5 m/s 27.1 mm
20:00 13.3° 1014.3 hPa 2.2 m/s 27.1 mm 13.3° 1014.3 hPa 2.2 m/s 27.1 mm
 07:26     18:54    Daglengte: 11:28 Maandag 04 Okt
02:00 11.6° 1018.2 hPa 1.7 m/s 27.2 mm 11.6° 1018.2 hPa 1.7 m/s 27.2 mm
08:00 10.7° 1019.9 hPa 0.6 m/s 27.2 mm 10.7° 1019.9 hPa 0.6 m/s 27.2 mm
14:00 17.7° 1017.8 hPa 1.7 m/s 27.2 mm 17.7° 1017.8 hPa 1.7 m/s 27.2 mm
20:00 12.3° 1019.0 hPa 1.7 m/s 27.2 mm 12.3° 1019.0 hPa 1.7 m/s 27.2 mm
 07:27     18:52    Daglengte: 11:25 Dinsdag 05 Okt
02:00 10.8° 1018.8 hPa 1.8 m/s 27.2 mm 10.8° 1018.8 hPa 1.8 m/s 27.2 mm
08:00 11.5° 1017.4 hPa 1.9 m/s 27.2 mm 11.5° 1017.4 hPa 1.9 m/s 27.2 mm
14:00 22.6° 1013.8 hPa 1.6 m/s 27.2 mm 22.6° 1013.8 hPa 1.6 m/s 27.2 mm
20:00 15.9° 1014.7 hPa 2.7 m/s 27.2 mm 15.9° 1014.7 hPa 2.7 m/s 27.2 mm
 07:29     18:50    Daglengte: 11:21 Woensdag 06 Okt
02:00 10.9° 1017.1 hPa 1.8 m/s 0.9 mm
08:00 10.3° 1017.3 hPa 1.7 m/s 1.1 mm
14:00 15.3° 1017.2 hPa 1.8 m/s 2.0 mm
20:00 10.9° 1019.2 hPa 1.1 m/s 2.7 mm
 07:30     18:48    Daglengte: 11:18 Donderdag 07 Okt
02:00 9.7° 1020.4 hPa 1.2 m/s 1.4 mm
08:00 9.4° 1020.6 hPa 1.0 m/s 0.9 mm
14:00 15.3° 1019.5 hPa 0.9 m/s 1.4 mm
20:00 11.1° 1020.9 hPa 0.9 m/s 1.2 mm
 07:32     18:46    Daglengte: 11:14 Vrijdag 08 Okt
02:00 10.0° 1021.9 hPa 1.3 m/s 0.8 mm
08:00 9.6° 1022.3 hPa 1.3 m/s 0.5 mm
14:00 17.2° 1021.1 hPa 1.3 m/s 0.6 mm
20:00 11.4° 1022.5 hPa 0.7 m/s 0.5 mm
 07:33     18:44    Daglengte: 11:11 Zaterdag 09 Okt
02:00 9.9° 1023.3 hPa 1.0 m/s 0.6 mm
08:00 9.3° 1023.0 hPa 1.2 m/s 0.0 mm
14:00 17.5° 1021.0 hPa 1.1 m/s 1.1 mm
20:00 11.7° 1021.8 hPa 1.0 m/s 1.3 mm
 07:34     18:42    Daglengte: 11:08 Zondag 10 Okt
02:00 10.4° 1022.2 hPa 1.4 m/s 0.7 mm
08:00 10.1° 1021.8 hPa 1.1 m/s 0.4 mm
14:00 17.3° 1020.3 hPa 1.3 m/s 0.6 mm
20:00 11.7° 1021.3 hPa 0.9 m/s 0.6 mm
 07:36     18:40    Daglengte: 11:04 Maandag 11 Okt
02:00 10.2° 1022.0 hPa 1.1 m/s 0.6 mm
08:00 9.4° 1022.2 hPa 0.9 m/s 1.3 mm
FMI Hirlam - 7.5 km EWN WRFDA - 12 km DWD ICON - 7 km GFS - 25 km Basiskaart






























































Updatetijd (Europe/Amsterdam) Resolutie Lengte Stap
FMI Hirlam 01:45, 07:45, 13:45, 19:45 7.5 km 49h 1h
EWN WRFDA 05:30, 11:30, 17:30, 23:30 12 km 73h 1h
DWD ICON 06:00, 12:00, 18:00, 00:00 7 km 75h 1h
GFS 02:15, 08:15, 14:15, 20:15 25 km 237h 3h
30+ mm
25-30 mm
20-25 mm
15-20 mm
10-15 mm
6-10 mm
4-6 mm
2-4 mm
1-2 mm
0.5-1 mm
0.2-0.5 mm
0.1-0.2 mm
30+ mm
25-30 mm
20-25 mm
15-20 mm
10-15 mm
6-10 mm
4-6 mm
2-4 mm
1-2 mm
0.5-1 mm
0.2-0.5 mm
0.1-0.2 mm
Sneeuwval
Natte sneeuw
Hagel
Vorst
30+ mm
25-30 mm
20-25 mm
15-20 mm
10-15 mm
6-10 mm
4-6 mm
2-4 mm
1-2 mm
0.5-1 mm
0.2-0.5 mm
0.1-0.2 mm
Sneeuwval
Natte sneeuw
Hagel
Vorst
Onweer
50 mm
40 mm
30 mm
26 mm
22 mm
18 mm
14 mm
10 mm
9 mm
8 mm
7 mm
6 mm
5 mm
4.5 mm
4 mm
3.5 mm
3 mm
2.5 mm
2 mm
1.5 mm
1 mm
0.8 mm
0.6 mm
0.4 mm
0.2 mm
0.05 mm
35°
30°
25°
20°
15°
10°
-5°
-10°
-15°
-20°
-25°
-30°
-35°
33> m/s
29 m/s
25 m/s
21 m/s
17 m/s
14 m/s
11 m/s
8 m/s
5 m/s
3 m/s
0 m/s
2600 J/kg
2400 J/kg
2200 J/kg
2000 J/kg
1800 J/kg
1600 J/kg
1400 J/kg
1200 J/kg
1000 J/kg
800 J/kg
600 J/kg
400 J/kg
200 J/kg
70 dBZ
65 dBZ
60 dBZ
55 dBZ
50 dBZ
45 dBZ
40 dBZ
35 dBZ
30 dBZ
25 dBZ
20 dBZ
15 dBZ
10 dBZ
5 dBZ
-1 K
-2 K
-3 K
-4 K
-5 K
-6 K
-7 K
-8 K
-9 K
950 m²/s²
900 m²/s²
850 m²/s²
800 m²/s²
750 m²/s²
700 m²/s²
650 m²/s²
600 m²/s²
550 m²/s²
500 m²/s²
450 m²/s²
400 m²/s²
350 m²/s²
300 m²/s²
250 m²/s²
200 m²/s²
150 m²/s²
100 m²/s²
46 m/s
44 m/s
42 m/s
40 m/s
38 m/s
36 m/s
34 m/s
32 m/s
30 m/s
28 m/s
26 m/s
24 m/s
22 m/s
20 m/s
16 m/s
12 m/s
8 m/s
4 m/s
30 m/s
28 m/s
26 m/s
24 m/s
22 m/s
20 m/s
18 m/s
16 m/s
14 m/s
12 m/s
10 m/s
8 m/s
6 m/s
4 m/s
2 m/s
3.0
2.8
2.6
2.4
2.2
2.0
1.8
1.6
1.4
1.2
1.0
0.8
0.6
0.4
0.2
15
14
13
12
11
10
9
8
7
6
5
4
3
2
1
90%
80%
70%
60%
50%
40%
30%
20%
10%
42
40
38
36
34
32
30
28
26
24
22
20
18
16
14
12
90+ cm
80-90 cm
70-80 cm
60-70 cm
50-60 cm
40-50 cm
30-40 cm
20-30 cm
10-20 cm
1-10 cm
Sneeuwval
Natte sneeuw
Regen
>120 mm
115 mm
110 mm
105 mm
100 mm
95 mm
90 mm
85 mm
80 mm
75 mm
70 mm
65 mm
60 mm
55 mm
50 mm
45 mm
45 mm
40 mm
35 mm
30 mm
25 mm
20 mm
15 mm
10 mm
5 mm
0.1 mm
960 hPa
880 hPa
800 hPa
720 hPa
640 hPa
560 hPa
584 gpdm
568 gpdm
552 gpdm
536 gpdm
520 gpdm
504 gpdm
488 gpdm
Extreem zwaar Noodweer Kans op onweer
15% 15% 5% 50% 15%

Dag




Kaart






35°
30°
25°
20°
15°
10°
-5°
-10°
-15°
-20°
-25°
-30°
-35°
33> m/s
29 m/s
<